NUSAT-13 (EMMY) (46833 NORAD) Tracking and Keplerian Element Data

This shows tracking and keplerian element data for the satellite.

Feedback or suggestion? Click here.




ElementValue
Catalog46833
NameNUSAT-13 (EMMY)
Epoch Orbit1162
Epoch Day21.11495623
Epoch Year2021
RAAN97.8139
Inclination97.2609
Eccentricity0.0008644
Argument of Perigee1.6723
Mean Anonmoly45.6676
Mean Motion15.31647441
Decay Rate1.396E-05
L11 46833U 20079G 21021.11495623 .00001396 00000-0 48101-4 0 9996
L22 46833 97.2609 97.8139 0008644 1.6723 45.6676 15.31647441 11627

Live tracking and technical data element details for NUSAT-13 (EMMY) (NORAD 46833). NUSAT-13 (EMMY) can be tracked NOW for your location showing map with azimuth and elevation plus other details from your city location.

Track the satellite on the map from your city or location and see movement details for azimuth, elevation, latitude, longitude, range, height, and movement on the map or in text.







IsCatalogInMostPopularTable: catalog: 46833, numindb: 35
Update: records affected: 1



GetName: 46833 NUSAT-13 (EMMY)

Hit Count: updated at: Fri, 22 Jan 2021 18:24:42 GMT